Location: Coopersdale
(40.3556°N, 78.9372°W)
Time: 03:08:11
(UTC+00:00)

Tiros 1 despin weight - Pass Details

Date: 22 January 2021
Orbit: 593 x 642 km, 48.2° (Epoch: 02 March)

Event Time Altitude Azimuth Distance (km) Brightness Sun altitude
Rises 22:52:43 0° 287° (WNW) 2,864 ? -6.1°
Reaches altitude 10° 22:55:16 10° 298° (WNW) 1,952 ? -6.6°
Maximum altitude 22:59:12 29° 359° (N) 1,106 ? -7.3°
Drops below altitude 10° 23:03:05 10° 61° (ENE) 1,932 ? -8.0°
Enters shadow 23:03:09 10° 61° (ENE) 1,954 ? -8.0°
Sets 23:05:36 0° 73° (ENE) 2,829 - -8.5°
